カタログに戻る

SL-12 DEB

LostHEO
NORAD 27959·DEBRIS·🇷🇺 Russia

打ち上げ Sep 16, 1987 から Baikonur Cosmodrome

Loading…

次のパス (今後24時間)

TLE

古いSource: Space-Track

元期: Dec 26, 2003, 05:35 UTC

1 27959U 87079AY  03360.23280923 -.00000028 +00000-0 +10000-3 0  9999
2 27959 065.6010 080.1924 5206229 070.9774 233.1802 04.11067039012335

AllMySatでSL-12 DEBをリアルタイム追跡

Download on the App Store